sat.trackr.live / text

‹ back to catalog

STARLINK-37638

NORAD 69144 · 2026-110W

PAYLOAD ACTIVE UNKNOWN

§ Identity

Operator
Country
US
Launch date
2026-05-20
Launch site
AFWTR
Launch vehicle
Mass (kg)
RCS (m²)

Purposes: comms

External: N2YO · Heavens-Above · Gunter

§ Orbital elements

Epoch: 2026-09-18T02:39:29.185344Z

Period
93.91 min
Inclination
97.2853°
Eccentricity
0.0001704
Mean motion
15.33440707 rev/d
Perigee alt
464.4 km
Apogee alt
466.7 km
Semi-major
6,843.7 km
B*
2.6697e-4
RAAN
96.2614°
Arg perigee
94.0881°
Mean anomaly
266.0556°
Rev number
1,985

§ Raw data

STARLINK-376381 69144U 26110W   26261.11075446  .00008552  00000+0  26697-3 0  99912 69144  97.2853  96.2614 0001704  94.0881 266.0556 15.33440707 19857

JSON: /api/v1/satellites/69144 · /tle

For live sub-satellite position, see the globe view (requires WebGL).

§ Visibility from observer

Set your observer location to see the next 7 days of passes ≥ 10°. The values pass through the URL so the page stays shareable.

No JS? Fill the form by hand. The geolocation button needs JavaScript.